Location: Dover
(39.1580°N, 75.5250°W)
Time: 15:20:49
(UTC-04:00)

SeaSat 1 - Visible Passes

Search period start: 01 May 2016 00:00
Search period end: 11 May 2016 00:00
Orbit: 745 x 749 km, 108.0° (Epoch: 30 April)

Date Brightness Start Highest point End Pass type
(mag) Time Alt. Az. Time Alt. Az. Time Alt. Az.
02 May 4.4 20:58:50 10° SSW 21:02:57 26° WSW 21:07:04 10° NW visible
04 May 4.5 21:12:49 10° SSW 21:16:44 24° WSW 21:20:40 10° NW visible
05 May 2.9 20:29:45 10° SSE 20:34:39 65° WSW 20:39:34 10° NNW visible
06 May 4.6 21:26:49 10° SSW 21:30:32 21° WSW 21:34:15 10° WNW visible
07 May 3.0 20:43:34 10° SSE 20:48:24 58° WSW 20:53:18 10° NNW visible
08 May 4.7 21:40:52 10° SSW 21:44:19 19° WSW 21:47:48 10° WNW visible
09 May 3.2 20:57:23 10° S 21:02:10 52° WSW 21:07:01 10° NW visible
10 May 4.8 21:54:57 10° SW 21:58:07 17° WSW 22:01:18 10° WNW visible
